Flag Weather past 2 weeks in Ghent, Belgium

Now
47 °F

Rain. Overcast.


Feels Like: 46 °F
Forecast: 38 / 46 °F
Wind: 3 mph from Northwest

Location: Munte

Current Time: Nov 24, 2014 at 4:00:35 AM

Latest Report: Nov 24, 2014 at 3:00 AM


Visibility: 2 mi

Pressure: 30.16 "Hg

Humidity: 98%

Dew point: 47 °F

Location of GhentLocation

Historic Weather in Ghent — Graph

°F

Ghent temperature yesterday

Maximum temperature yesterday: 57 °F (at 3:00 PM)
Minimum temperature yesterday: 49 °F (at 8:00 AM)
Average temperature yesterday: 53 °F

Past Weeks' High & Low Weather Summary

 TemperatureHumidityPressure
High58 °F (Nov 11, 3:00 PM)100% (Nov 15, 5:00 AM)30.31 "Hg (Nov 15, 5:00 AM)
Low37 °F (Nov 21, 8:00 AM)72% (Nov 10, 4:00 PM)29.47 "Hg (Nov 12, 3:00 AM)
Average48 °F90%29.82 "Hg
* Reported Nov 9 2:00 AM — Nov 24 2:00 AM, Ghent, Weather by CustomWeather, © 2014

Note: Actual official high and low records may vary slightly from our data, if they occured in-between our weather recording intervals... More about our weather records

Advertising

Ghent weather history for previous 24 hours

 ConditionsComfort  
Time TempWeatherWind HumidityBarometerVisibility
2:00 AM
Nov 24
48 °FDrizzle. Overcast.2 mph99%30.12 "Hg7 mi
1:00 AM48 °FLight rain. Overcast.2 mph99%30.11 "Hg6 mi
12:00 AM48 °FDrizzle. Overcast.3 mph98%30.08 "Hg5 mi
11:00 PM
Nov 23
49 °FDrizzle. Overcast.3 mph98%30.07 "Hg3 mi
10:00 PM50 °FDrizzle. Overcast.5 mph97%30.03 "Hg4 mi
9:00 PM52 °FDrizzle. Overcast.3 mph98%30.00 "Hg2 mi
8:00 PM55 °FCool.3 mph92%29.97 "Hg7 mi
7:00 PM55 °FCool.2 mph89%29.95 "Hg10 mi
6:00 PM55 °FCool.2 mph88%29.96 "Hg10 mi
5:00 PM56 °FCool.2 mph86%29.94 "Hg12 mi
4:00 PM56 °FCool.2 mph84%29.94 "Hg13 mi
3:00 PM57 °FCool.5 mph82%29.94 "Hg19 mi
2:00 PM57 °FCool.2 mph84%29.96 "Hg15 mi
1:00 PM57 °FCool.6 mph82%29.98 "Hg12 mi
12:00 PM56 °FCool.3 mph82%30.00 "Hg11 mi
11:00 AM53 °FCool.2 mph89%30.02 "Hg8 mi
10:00 AM51 °FCool.2 mph92%30.02 "Hg7 mi
9:00 AM50 °FCool.2 mph94%30.02 "Hg6 mi
8:00 AM49 °FCool.2 mph94%30.02 "Hg5 mi
7:00 AM50 °FCool.2 mph94%30.01 "Hg6 mi
6:00 AM50 °FCool.2 mph94%30.02 "Hg6 mi
5:00 AM50 °FCool.3 mph94%30.01 "Hg6 mi
4:00 AM50 °FCool.N/A94%30.03 "Hg6 mi
Weather by CustomWeather, © 2014

See weather overviewHow to use our weather pages